| time (UTC) | temp F | wind direction | speed knots | gust knots | rain 1hr in | rain 24hr in | rain mn in | humidity % | barometer mb |
| 20260503224014 | 75 | 287 | 4.3 | 9.6 | 0.00 | 0.00 | 0.00 | 50 | 1006.3 |
| 20260503222512 | 74 | 334 | 4.3 | 10.4 | 0.00 | 0.00 | 0.00 | 50 | 1006.4 |
| 20260503221010 | 73 | 311 | 5.2 | 9.6 | 0.00 | 0.00 | 0.00 | 51 | 1006.7 |
| 20260503215509 | 73 | 261 | 4.3 | 11.3 | 0.00 | 0.00 | 0.00 | 53 | 1006.9 |
| 20260503213950 | 73 | 297 | 3.5 | 8.7 | 0.00 | 0.00 | 0.00 | 51 | 1007.1 |
| 20260503212448 | 73 | 44 | 3.5 | 10.4 | 0.00 | 0.00 | 0.00 | 51 | 1007.2 |
| 20260503210950 | 72 | 298 | 5.2 | 10.4 | 0.00 | 0.00 | 0.00 | 55 | 1007.4 |
| 20260503205433 | 72 | 311 | 4.3 | 9.6 | 0.00 | 0.00 | 0.00 | 53 | 1007.4 |
| 20260503203931 | 71 | 355 | 3.5 | 10.4 | 0.00 | 0.00 | 0.00 | 56 | 1007.5 |
| 20260503202411 | 71 | 286 | 2.6 | 8.7 | 0.00 | 0.00 | 0.00 | 59 | 1007.5 |
| 20260503200910 | 71 | 64 | 3.5 | 8.7 | 0.00 | 0.00 | 0.00 | 59 | 1007.7 |
| 20260503195400 | 69 | 215 | 2.6 | 7.8 | 0.00 | 0.00 | 0.00 | 63 | 1008.0 |
| 20260503193840 | 69 | 279 | 3.5 | 9.6 | 0.00 | 0.00 | 0.00 | 64 | 1008.2 |
| 20260503192342 | 68 | 304 | 3.5 | 9.6 | 0.00 | 0.00 | 0.00 | 65 | 1008.3 |
| 20260503190837 | 67 | 285 | 3.5 | 8.7 | 0.00 | 0.00 | 0.00 | 62 | 1008.4 |
| 20260503185338 | 66 | 312 | 2.6 | 7.0 | 0.00 | 0.00 | 0.00 | 64 | 1008.5 |
| 20260503183836 | 67 | 85 | 2.6 | 7.8 | 0.00 | 0.00 | 0.00 | 63 | 1008.6 |
| 20260503182340 | 67 | 32 | 3.5 | 7.8 | 0.00 | 0.00 | 0.00 | 64 | 1008.7 |
| 20260503180837 | 67 | 304 | 3.5 | 10.4 | 0.00 | 0.00 | 0.00 | 64 | 1008.8 |
| 20260503175334 | 68 | 336 | 2.6 | 10.4 | 0.00 | 0.00 | 0.00 | 64 | 1009.0 |
| 20260503173834 | 67 | 332 | 2.6 | 9.6 | 0.00 | 0.00 | 0.00 | 64 | 1009.0 |
| 20260503172333 | 67 | 286 | 2.6 | 8.7 | 0.00 | 0.00 | 0.00 | 66 | 1009.1 |
| 20260503170824 | 67 | 67 | 2.6 | 7.8 | 0.00 | 0.00 | 0.00 | 65 | 1009.3 |
| 20260503150801 | 58 | 307 | 0.9 | 4.3 | 0.00 | 0.00 | 0.00 | 79 | 1009.6 |
| 20260503130644 | 54 | 333 | 0.9 | 5.2 | 0.00 | 0.00 | 0.00 | 83 | 1009.2 |
| 20260503110533 | 52 | 67 | 0.9 | 2.6 | 0.00 | 0.00 | 0.00 | 86 | 1009.4 |
| 20260503090456 | 55 | 57 | 0.0 | 2.6 | 0.00 | 0.00 | 0.00 | 79 | 1009.4 |
| 20260503080435 | 58 | 53 | 1.7 | 7.0 | 0.00 | 0.00 | 0.00 | 71 | 1009.2 |
| 20260503071924 | 55 | 26 | 0.9 | 3.5 | 0.00 | 0.00 | 0.00 | 79 | 1009.3 |
| 20260503070424 | 56 | 42 | 1.7 | 2.6 | 0.00 | 0.00 | 0.00 | 79 | 1009.1 |
| 20260503054851 | 59 | 42 | 1.7 | 5.2 | 0.00 | 0.00 | 0.00 | 71 | 1009.0 |
| 20260503053342 | 58 | 30 | 0.9 | 4.3 | 0.00 | 0.00 | 0.00 | 74 | 1009.0 |
| 20260503051829 | 58 | 5 | 0.9 | 2.6 | 0.00 | 0.00 | 0.00 | 73 | 1009.0 |
| 20260503050306 | 59 | 24 | 0.0 | 2.6 | 0.00 | 0.00 | 0.00 | 71 | 1009.0 |
| 20260503044807 | 59 | 36 | 0.0 | 3.5 | 0.00 | 0.00 | 0.00 | 72 | 1008.9 |
| 20260503043308 | 59 | 46 | 0.0 | 0.9 | 0.00 | 0.00 | 0.00 | 70 | 1008.8 |
| 20260503041801 | 59 | 25 | 0.0 | 0.9 | 0.00 | 0.00 | 0.00 | 70 | 1008.7 |
| 20260503040253 | 60 | 321 | 0.0 | 0.0 | 0.00 | 0.00 | 0.00 | 71 | 1008.6 |
| 20260503034725 | 60 | 320 | 0.0 | 1.7 | 0.00 | 0.00 | 0.00 | 69 | 1008.4 |
| 20260503033203 | 62 | 304 | 0.0 | 2.6 | 0.00 | 0.00 | 0.00 | 65 | 1008.3 |
| 20260503031703 | 64 | 298 | 0.0 | 6.1 | 0.00 | 0.00 | 0.00 | 61 | 1008.1 |
| 20260503030202 | 65 | 321 | 2.6 | 7.0 | 0.00 | 0.00 | 0.00 | 57 | 1008.1 |
| 20260503024659 | 66 | 288 | 3.5 | 7.0 | 0.00 | 0.00 | 0.00 | 57 | 1008.0 |
| 20260503021649 | 68 | 302 | 4.3 | 9.6 | 0.00 | 0.00 | 0.00 | 52 | 1008.0 |
| 20260503020126 | 68 | 303 | 4.3 | 10.4 | 0.00 | 0.00 | 0.00 | 51 | 1008.1 |
| 20260503014623 | 70 | 297 | 2.6 | 8.7 | 0.00 | 0.00 | 0.00 | 53 | 1008.2 |
| 20260503011626 | 70 | 277 | 1.7 | 6.1 | 0.00 | 0.00 | 0.00 | 52 | 1008.4 |
| 20260503010058 | 70 | 62 | 1.7 | 7.0 | 0.00 | 0.00 | 0.00 | 56 | 1008.4 |
| 20260503004556 | 70 | 273 | 2.6 | 12.2 | 0.00 | 0.00 | 0.00 | 54 | 1008.5 |
| 20260503003053 | 71 | 258 | 3.5 | 10.4 | 0.00 | 0.00 | 0.00 | 51 | 1008.4 |
| 20260503001553 | 71 | 327 | 4.3 | 13.0 | 0.00 | 0.00 | 0.00 | 51 | 1008.4 |
| 20260503000058 | 70 | 306 | 6.1 | 13.9 | 0.00 | 0.00 | 0.00 | 49 | 1008.7 |
| 20260502234527 | 70 | 317 | 6.1 | 12.2 | 0.00 | 0.00 | 0.00 | 48 | 1008.8 |
| 20260502233013 | 70 | 283 | 4.3 | 10.4 | 0.00 | 0.00 | 0.00 | 51 | 1009.0 |
| 20260502231512 | 70 | 310 | 5.2 | 11.3 | 0.00 | 0.00 | 0.00 | 55 | 1009.2 |
| 20260502225956 | 68 | 284 | 2.6 | 11.3 | 0.00 | 0.00 | 0.00 | 59 | 1009.4 |